Volver al catálogo

STARLINK-32369

ActivoComunicacionesVLEO
NORAD 60917·PAYLOAD·🇺🇸 United States

Lanzado Aug 31, 2024 desde Cape Canaveral Space Force Station

Loading…

Próximos Pases (próximas 24 horas)

TLE

ActualizadoSource: CelesTrak SupGP

Época: Sep 15, 2026, 03:25 UTC

1 60917C 24154Q   26258.14284722  .00028883  00000+0  92873-3 0  2580
2 60917  53.1567 122.6216 0001254  81.2493  94.3787 15.31690033    11

Sigue STARLINK-32369 en tiempo real con AllMySat

Download on the App Store